Kimball, NE

8:41 PM MST on January 20, 2017 (GMT -0700)
Kimball Municipal-Arraj

Weather History for KIBM - January, 2013

Change the Weather History Date:

Sunday, January 13, 2013

  Actual Average (KSNY) Record (KSNY)
Temperature  
Mean Temperature 2 °F -  
Max Temperature 13 °F 40 °F 69 °F (1987)
Min Temperature -10 °F 10 °F -16 °F (1997)
Degree Days  
Heating Degree Days 64    
Moisture  
Dew Point -4 °F    
Average Humidity 77    
Maximum Humidity 84    
Minimum Humidity 62    
Precipitation  
Precipitation 0.00 in - - ()
Sea Level Pressure  
Sea Level Pressure 30.01 in    
Wind  
Wind Speed 7 mph (WNW)    
Max Wind Speed 10 mph    
Max Gust Speed -    
Visibility 10 miles    
Events      
Averages and records for this station are not official NWS values.
T = Trace of Precipitation, MM = Missing Value Source: NWS Daily Summary

Daily Weather History Graph

Daily Weather History Graph

Search for Another Location

Airport or City:

Trip Planner

Search our weather history database for the weather conditions in past years. The results will help you decide how hot, cold, wet, or windy it might be!

Date:

Astronomy

Jan. 13, 2013 Rise Set
Actual Time 8:18 AM CST 5:48 PM CST
Civil Twilight 7:48 AM CST 6:19 PM CST
Nautical Twilight 7:14 AM CST 6:53 PM CST
Astronomical Twilight 6:40 AM CST 7:26 PM CST
Moon 9:16 AM CST (1/13) 8:31 PM CST (1/13)
Length of Visible Light 10h 31m
Length of Day
9h 30m
Waxing Crescent, 5% of the Moon is Illuminated
Jan 13
Waxing Crescent
Jan 18
First Quarter
Jan 26
Full
Feb 3
Last Quarter
Feb 10
New

Hourly Weather History & Observations

Time (CST) Temp. Windchill Dew Point Humidity Pressure Visibility Wind Dir Wind Speed Gust Speed Precip Events Conditions
12:15 AM -6.9 °F -21.2 °F -11.7 °F 79% 29.97 in 10.0 mi WNW 6.9 mph - N/A   Scattered Clouds
12:35 AM -7.6 °F -20.6 °F -12.3 °F 80% 29.97 in 10.0 mi West 5.8 mph - N/A   Overcast
12:55 AM -7.2 °F -21.7 °F -12.3 °F 79% 29.97 in 10.0 mi WNW 6.9 mph - N/A   Scattered Clouds
1:15 AM -9.6 °F -22.9 °F -14.8 °F 78% 29.97 in 10.0 mi West 5.8 mph - N/A   Clear
1:35 AM -10.1 °F -26.5 °F -15.2 °F 78% 29.97 in 10.0 mi WNW 8.1 mph - N/A   Clear
1:55 AM -9.6 °F -22.9 °F -14.4 °F 79% 29.97 in 7.0 mi West 5.8 mph - N/A   Scattered Clouds
2:15 AM -7.1 °F -19.9 °F -11.6 °F 81% 29.97 in 10.0 mi West 5.8 mph - N/A   Mostly Cloudy
2:35 AM -4.5 °F -19.7 °F -9.2 °F 80% 29.97 in 10.0 mi West 8.1 mph - N/A   Overcast
2:55 AM -3.5 °F -18.4 °F -8.0 °F 81% 29.98 in 10.0 mi WNW 8.1 mph - N/A   Overcast
3:15 AM -2.6 °F -16.0 °F -6.9 °F 82% 29.97 in 10.0 mi WNW 6.9 mph - N/A   Mostly Cloudy
3:35 AM -1.8 °F -15.2 °F -6.3 °F 81% 29.97 in 10.0 mi WNW 6.9 mph - N/A   Mostly Cloudy
3:55 AM -1.5 °F -14.7 °F -5.8 °F 82% 29.97 in 10.0 mi WNW 6.9 mph - N/A   Overcast
4:15 AM -1.7 °F -16.2 °F -6.0 °F 82% 29.97 in 10.0 mi WNW 8.1 mph - N/A   Overcast
4:35 AM -0.8 °F -16.2 °F -5.1 °F 82% 29.96 in 10.0 mi WNW 9.2 mph - N/A   Mostly Cloudy
4:55 AM -0.4 °F -13.4 °F -4.9 °F 81% 29.96 in 10.0 mi West 6.9 mph - N/A   Overcast
5:15 AM 0.3 °F -13.8 °F -4.0 °F 82% 29.95 in 10.0 mi WNW 8.1 mph - N/A   Overcast
5:35 AM 0.5 °F -12.3 °F -3.8 °F 82% 29.95 in 10.0 mi WNW 6.9 mph - N/A   Overcast
5:55 AM 0.9 °F -14.2 °F -3.5 °F 82% 29.95 in 10.0 mi WNW 9.2 mph - N/A   Overcast
6:15 AM 0.9 °F -13.1 °F -3.6 °F 81% 29.96 in 10.0 mi WNW 8.1 mph - N/A   Overcast
6:35 AM -0.0 °F -13.0 °F -4.4 °F 82% 29.96 in 10.0 mi WNW 6.9 mph - N/A   Overcast
6:55 AM -0.9 °F -14.1 °F -5.1 °F 83% 29.97 in 10.0 mi WNW 6.9 mph - N/A   Mostly Cloudy
7:15 AM -1.3 °F -15.7 °F -5.8 °F 81% 29.97 in 10.0 mi West 8.1 mph - N/A   Scattered Clouds
7:35 AM -1.3 °F -14.5 °F -5.8 °F 81% 29.98 in 10.0 mi WNW 6.9 mph - N/A   Scattered Clouds
7:55 AM -1.3 °F -13.1 °F -5.8 °F 81% 29.99 in 10.0 mi WNW 5.8 mph - N/A   Scattered Clouds
8:15 AM -1.3 °F -14.5 °F -5.4 °F 83% 29.99 in 10.0 mi WNW 6.9 mph - N/A   Mostly Cloudy
8:35 AM -2.6 °F -16.0 °F -6.9 °F 82% 30.00 in 10.0 mi WNW 6.9 mph - N/A   Scattered Clouds
9:15 AM -1.3 °F -11.4 °F -5.8 °F 81% 30.02 in 10.0 mi West 4.6 mph - N/A   Clear
9:35 AM -0.0 °F -9.9 °F -4.5 °F 81% 30.03 in 10.0 mi West 4.6 mph - N/A   Clear
9:55 AM 1.8 °F -9.5 °F -2.7 °F 81% 30.03 in 10.0 mi West 5.8 mph - N/A   Clear
10:15 AM 4.5 °F -8.7 °F -0.2 °F 81% 30.03 in 10.0 mi WNW 8.1 mph - N/A   Clear
10:35 AM 5.7 °F -8.2 °F 0.5 °F 79% 30.03 in 10.0 mi WNW 9.2 mph - N/A   Clear
10:55 AM 5.7 °F -8.2 °F 0.3 °F 78% 30.03 in 10.0 mi WNW 9.2 mph - N/A   Clear
11:15 AM 6.4 °F -6.3 °F 1.0 °F 78% 30.03 in 10.0 mi NW 8.1 mph - N/A   Clear
11:35 AM 7.2 °F -5.4 °F 1.4 °F 77% 30.03 in 10.0 mi WNW 8.1 mph - N/A   Clear
11:55 AM 8.1 °F -3.2 °F 1.9 °F 76% 30.03 in 10.0 mi West 6.9 mph - N/A   Clear
12:15 PM 9.5 °F -1.5 °F 3.2 °F 76% 30.02 in 10.0 mi WNW 6.9 mph - N/A   Clear
12:35 PM 10.2 °F -0.6 °F 3.6 °F 74% 30.01 in 10.0 mi WNW 6.9 mph - N/A   Clear
12:55 PM 10.4 °F -0.4 °F 3.9 °F 75% 30.00 in 10.0 mi NW 6.9 mph - N/A   Clear
1:15 PM 11.8 °F -0.7 °F 4.5 °F 72% 30.00 in 10.0 mi NNW 9.2 mph - N/A   Clear
1:35 PM 12.4 °F 0.9 °F 3.9 °F 69% 30.00 in 10.0 mi NNW 8.1 mph - N/A   Clear
1:55 PM 12.6 °F 0.2 °F 4.1 °F 69% 29.99 in 10.0 mi NNW 9.2 mph - N/A   Clear
2:15 PM 12.7 °F 0.4 °F 3.4 °F 66% 30.00 in 10.0 mi NW 9.2 mph - N/A   Clear
2:35 PM 13.1 °F 0.9 °F 3.7 °F 66% 30.00 in 10.0 mi NW 9.2 mph - N/A   Clear
2:55 PM 13.1 °F 0.9 °F 3.6 °F 66% 30.00 in 10.0 mi WNW 9.2 mph - N/A   Clear
3:15 PM 12.9 °F 0.7 °F 2.5 °F 63% 30.01 in 10.0 mi NW 9.2 mph - N/A   Clear
3:35 PM 12.4 °F 2.0 °F 1.6 °F 62% 30.01 in 10.0 mi NNW 6.9 mph - N/A   Clear
3:55 PM 12.2 °F 1.7 °F 1.8 °F 63% 30.02 in 10.0 mi NNW 6.9 mph - N/A   Clear
4:15 PM 11.5 °F 2.1 °F 1.4 °F 64% 30.03 in 10.0 mi NNW 5.8 mph - N/A   Clear
4:35 PM 10.6 °F -0.2 °F 1.4 °F 67% 30.03 in 10.0 mi NNW 6.9 mph - N/A   Scattered Clouds
4:55 PM 11.7 °F 1.1 °F 2.1 °F 66% 30.03 in 10.0 mi NNW 6.9 mph - N/A   Mostly Cloudy
5:15 PM 11.1 °F 1.7 °F 1.6 °F 66% 30.04 in 10.0 mi NNW 5.8 mph - N/A   Overcast
5:35 PM 10.4 °F 2.2 °F 1.8 °F 68% 30.03 in 10.0 mi NW 4.6 mph - N/A   Overcast
6:15 PM 5.4 °F -3.6 °F -0.8 °F 76% 30.05 in 10.0 mi WNW 4.6 mph - N/A   Scattered Clouds
6:35 PM 3.2 °F -7.8 °F -2.2 °F 78% 30.05 in 10.0 mi WNW 5.8 mph - N/A   Clear
6:55 PM -0.8 °F -15.1 °F -6.0 °F 79% 30.05 in 10.0 mi WNW 8.1 mph - N/A   Clear
7:15 PM -0.9 °F -14.1 °F -5.8 °F 80% 30.05 in 10.0 mi WNW 6.9 mph - N/A   Clear
7:35 PM -3.1 °F -17.9 °F -7.6 °F 81% 30.06 in 10.0 mi WNW 8.1 mph - N/A   Clear
7:55 PM -3.3 °F -16.9 °F -7.6 °F 82% 30.06 in 10.0 mi WNW 6.9 mph - N/A   Clear
8:15 PM -2.9 °F -16.5 °F -6.9 °F 83% 30.06 in 10.0 mi WNW 6.9 mph - N/A   Clear
8:35 PM -3.1 °F -17.9 °F -6.9 °F 84% 30.06 in 10.0 mi WNW 8.1 mph - N/A   Clear
8:55 PM -5.6 °F -23.2 °F -9.8 °F 82% 30.06 in 10.0 mi WNW 10.4 mph - N/A   Clear
9:15 PM -5.1 °F -21.5 °F -9.6 °F 81% 30.06 in 10.0 mi WNW 9.2 mph - N/A   Clear
9:35 PM -5.6 °F -19.7 °F -10.5 °F 79% 30.07 in 10.0 mi West 6.9 mph - N/A   Clear
9:55 PM -6.0 °F -18.6 °F -10.5 °F 81% 30.07 in 10.0 mi West 5.8 mph - N/A   Clear
10:15 PM -6.7 °F -17.7 °F -11.2 °F 81% 30.07 in 10.0 mi West 4.6 mph - N/A   Clear
10:35 PM -7.2 °F -21.7 °F -11.9 °F 80% 30.07 in 10.0 mi West 6.9 mph - N/A   Clear
10:55 PM -7.6 °F -18.8 °F -13.0 °F 77% 30.07 in 10.0 mi West 4.6 mph - N/A   Clear
11:35 PM -7.6 °F -18.8 °F -13.0 °F 77% 30.08 in 10.0 mi West 4.6 mph - N/A   Scattered Clouds
11:55 PM -6.7 °F -19.5 °F -11.9 °F 78% 30.07 in 10.0 mi West 5.8 mph - N/A   Overcast